SM7GXQ Weather Reports


Display with metric or nautical units.
time (UTC)temp
F
wind
direction
speed
MPH
gust
MPH
rain 1hr
in
rain 24hr
in
rain mn
in
humidity
%
barometer
mb
20200531234504 52 32 5.0 10.0 0.00 0.00 0.00 79 1026.6
20200531233004 52 21 4.0 8.0 0.00 0.00 0.00 78 1026.6
20200531231504 52 13 5.0 9.0 0.00 0.00 0.00 78 1026.6
20200531230005 52 28 3.0 6.0 0.00 0.00 0.00 78 1026.9
20200531224504 52 31 4.0 8.0 0.00 0.00 0.00 78 1026.7
20200531223003 53 25 4.0 7.0 0.00 0.00 0.00 79 1026.7
20200531221504 53 19 4.0 10.0 0.00 0.00 0.00 81 1026.6
20200531220004 53 22 5.0 12.0 0.00 0.00 0.00 81 1026.5
20200531214504 54 23 7.0 13.0 0.00 0.00 0.00 82 1026.5
20200531213004 54 13 7.0 13.0 0.00 0.00 0.00 81 1026.5
20200531211504 54 30 5.0 10.0 0.00 0.00 0.00 81 1026.6
20200531204504 54 18 6.0 13.0 0.00 0.00 0.00 80 1026.6
20200531203004 54 15 7.0 17.0 0.00 0.00 0.00 80 1026.6
20200531201504 54 25 7.0 12.0 0.00 0.00 0.00 79 1026.5
20200531194504 55 17 8.0 14.0 0.00 0.00 0.00 77 1026.5
20200531193004 55 8 7.0 15.0 0.00 0.00 0.00 77 1026.5
20200531190005 55 19 10.0 21.0 0.00 0.00 0.00 77 1025.9
20200531184504 56 358 10.0 18.0 0.00 0.00 0.00 74 1025.9
20200531183004 57 0 12.0 18.0 0.00 0.00 0.00 72 1025.9
20200531180005 62 27 10.0 18.0 0.00 0.00 0.00 46 1025.9
20200531174504 62 48 7.0 18.0 0.00 0.00 0.00 47 1025.9
20200531173004 62 34 9.0 20.0 0.00 0.00 0.00 47 1025.9
20200531171504 62 24 10.0 20.0 0.00 0.00 0.00 51 1025.9
20200531170004 61 10 8.0 18.0 0.00 0.00 0.00 65 1026.2
20200531164504 60 0 10.0 17.0 0.00 0.00 0.00 67 1026.2
20200531163004 61 4 11.0 17.0 0.00 0.00 0.00 63 1026.2
20200531160005 60 358 13.0 20.0 0.00 0.00 0.00 68 1026.2
20200531154504 60 5 14.0 20.0 0.00 0.00 0.00 66 1026.2
20200531153004 60 2 14.0 20.0 0.00 0.00 0.00 68 1026.3
20200531151504 59 3 14.0 22.0 0.00 0.00 0.00 72 1026.3
20200531150004 59 3 14.0 22.0 0.00 0.00 0.00 74 1026.3
20200531144504 58 0 16.0 24.0 0.00 0.00 0.00 76 1026.3
20200531143006 58 357 15.0 22.0 0.00 0.00 0.00 77 1026.2
20200531141504 58 0 17.0 23.0 0.00 0.00 0.00 77 1026.2
20200531140005 58 1 16.0 22.0 0.00 0.00 0.00 78 1026.2
20200531133005 58 7 17.0 23.0 0.00 0.00 0.00 78 1026.2
20200531131504 58 1 16.0 23.0 0.00 0.00 0.00 78 1026.2
20200531130005 58 1 17.0 24.0 0.00 0.00 0.00 79 1026.2
20200531124504 58 0 17.0 26.0 0.00 0.00 0.00 79 1026.2
20200531123006 58 356 17.0 25.0 0.00 0.00 0.00 80 1026.2
20200531114504 58 7 16.0 24.0 0.00 0.00 0.00 80 1026.2
20200531110005 58 0 17.0 23.0 0.00 0.00 0.00 80 1026.2
20200531103005 58 0 16.0 23.0 0.00 0.00 0.00 80 1026.3
20200531101504 58 2 17.0 24.0 0.00 0.00 0.00 80 1026.6
20200531094505 57 0 17.0 23.0 0.00 0.00 0.00 81 1026.2
20200531090005 57 355 16.0 25.0 0.00 0.00 0.00 83 1025.9
20200531081505 56 9 16.0 24.0 0.00 0.00 0.00 83 1025.4
20200531080005 56 3 16.0 24.0 0.00 0.00 0.00 84 1025.4
20200531071506 56 2 13.0 23.0 0.00 0.00 0.00 83 1025.2
20200531070006 56 1 14.0 22.0 0.00 0.00 0.00 83 1025.2
20200531064505 56 5 13.0 20.0 0.00 0.00 0.00 83 1025.1
20200531063006 56 3 13.0 20.0 0.00 0.00 0.00 84 1025.1
20200531061505 55 357 13.0 20.0 0.00 0.00 0.00 84 1025.1
20200531054505 55 6 14.0 20.0 0.00 0.00 0.00 83 1024.8
20200531051505 55 8 12.0 20.0 0.00 0.00 0.00 83 1024.8
20200531044505 54 5 11.0 15.0 0.00 0.00 0.00 83 1024.5
20200531041505 54 19 8.0 14.0 0.00 0.00 0.00 81 1024.4